[[{"header":{"parameterUnit":"m.s-1","parameterCategory":1,"la1":30.2991,"la2":30.254,"lo1":-89.0895,"lo2":-89.0444,"dy":0.0017,"dx":0.0017,"nx":28,"ny":28,"refTime":"2025-08-04T03:00:00:Z","depth":0,"parameterNumber":2,"parameterNumberName":"U-component_of_WINDS"},"data":[0,0,0,0,0,0,0,0,0,0,0,0,0,0,0,0,0,0,0,0,0,0,0,0,0,0,0,0,0,0,0,0,0,0,0,0,0,0,0,0,0,0,0,0,0,0,0,0,0,0,0,0,0,0,0,0,0,0,-2.0828,-2.0827,0,-2.0802,-2.0801,-2.0801,-2.0697,-2.0694,-2.0692,-2.0689,-2.0665,-2.0667,-2.0668,0,0,0,0,0,0,0,0,0,0,0,0,0,-2.079,-2.0791,-2.0828,-2.0827,-2.0827,-2.0802,-2.0801,-2.0801,-2.0697,-2.0694,-2.0691,-2.0688,-2.0665,-2.0667,-2.0669,0,0,0,0,0,0,0,0,0,0,0,0,0,-2.079,-2.0792,-2.0828,-2.0772,-2.0767,-2.0802,-2.0801,-2.0801,-2.0698,-2.0694,-2.069,-2.0687,-2.0664,-2.0666,-2.0669,-2.0756,0,0,-2.0676,-2.0677,0,0,0,0,0,0,0,0,-2.079,-2.0791,-2.078,-2.0776,-2.077,-2.0749,-2.0779,-2.0786,-2.0699,-2.0724,-2.0689,-2.0685,-2.0696,-2.0696,-2.0699,-2.0755,-2.0754,-2.0676,-2.0678,-2.0679,-2.068,0,0,0,0,0,0,0,-2.079,-2.0792,-2.0817,-2.078,-2.0774,-2.0749,-2.0745,-2.078,-2.0731,-2.0721,-2.0714,-2.0712,-2.0693,-2.0697,-2.0697,-2.0754,-2.0676,-2.0678,-2.068,-2.0681,-2.0882,-2.0886,0,0,0,0,0,0,-2.0797,-2.0792,-2.0818,-2.0817,-2.0771,-2.0753,-2.0748,-2.0759,-2.073,-2.0722,-2.0715,-2.0707,-2.0694,-2.0695,-2.0696,-2.0797,-2.0679,-2.0681,-2.0683,-2.0878,-2.0883,-2.0887,0,0,0,0,0,0,-2.0797,-2.0801,-2.0819,-2.0802,-2.0803,-2.0757,-2.077,-2.0761,-2.0765,-2.0725,-2.0716,-2.0728,-2.0692,-2.0693,-2.0742,-2.0795,-2.0682,-2.0684,-2.0874,-2.088,-2.0885,-2.1001,0,0,0,0,0,0,-2.0796,-2.0801,-2.0833,-2.0804,-2.0804,-2.0865,-2.0774,-2.0763,-2.0769,-2.0758,-2.0735,-2.0728,-2.0689,-2.0739,-2.0745,-2.0796,-2.0686,-2.0869,-2.0877,-2.0883,-2.0992,-2.101,-2.1025,0,0,0,0,0,-2.0795,-2.0867,-2.0835,-2.0839,-2.0843,-2.0868,-2.0869,-2.0821,-2.0773,-2.0806,-2.0781,-2.0729,-2.0789,-2.0745,-2.075,-2.0804,-2.0865,-2.0874,-2.0883,-2.0985,-2.1006,-2.1025,0,0,0,0,0,0,-2.0904,-2.0862,-2.0826,-2.089,-2.0884,-2.0851,-2.089,-2.0846,-2.0853,-2.0843,-2.0785,-2.0781,-2.0839,-2.0826,-2.0779,-2.0888,-2.0818,-2.0829,-2.0894,-2.0914,-2.093,-2.0932,-2.0688,0,0,0,0,0,-2.0935,-2.0958,-2.0921,-2.0981,-2.0979,-2.0936,-2.0945,-2.0909,-2.09,-2.0897,-2.0876,-2.087,-2.0887,-2.09,-2.0914,-2.099,-2.0984,-2.1029,-2.1046,-2.1059,-2.1069,-2.111,-2.113,-2.0916,-2.0916,-2.0916,0,0,-2.1,-2.098,-2.0998,-2.1002,-2.0993,-2.1019,-2.0934,-2.0965,-2.0985,-2.0902,-2.0947,-2.0932,-2.0922,-2.0985,-2.1012,-2.0976,-2.1127,-2.1071,-2.1082,-2.1084,-2.1121,-2.1141,-2.1159,-2.0922,-2.0921,-2.092,0,0,-2.1132,-2.1119,-2.1168,-2.116,-2.1147,-2.1118,-2.113,-2.1104,-2.1091,-2.1135,-2.1074,-2.1097,-2.1128,-2.1124,-2.1125,-2.1258,-2.1211,-2.1264,-2.1351,-2.1391,-2.1408,-2.1422,-2.1471,-2.1489,-2.1274,-2.1274,-2.1274,0,-2.1214,-2.1251,-2.1199,-2.1234,-2.1239,-2.1165,-2.1215,-2.1211,-2.1204,-2.1209,-2.1169,-2.1207,-2.1195,-2.1257,-2.1289,-2.1293,-2.1306,-2.1266,-2.1409,-2.1424,-2.1436,-2.1482,-2.15,-2.1281,-2.128,-2.1279,-2.1279,0,-2.1353,-2.138,-2.1421,-2.1416,-2.1425,-2.1468,-2.1423,-2.1439,-2.1403,-2.1379,-2.1426,-2.1409,-2.1419,-2.1431,-2.1396,-2.1489,-2.1467,-2.142,-2.1348,-2.1464,-2.1506,-2.1523,-2.129,-2.1288,-2.1286,-2.1284,0,0,-2.1552,-2.1518,-2.1534,-2.1531,-2.1512,-2.1532,-2.1573,-2.1582,-2.1597,-2.1595,-2.1628,-2.1657,-2.1613,-2.1615,-2.158,-2.1615,-2.1723,-2.1563,-2.1562,-2.1594,-2.1825,-2.1862,-2.1882,-2.1691,-2.1694,-2.1697,-2.1826,0,-2.1678,-2.1744,-2.1699,-2.1773,-2.1797,-2.1729,-2.1764,-2.1757,-2.1736,-2.1755,-2.1731,-2.1753,-2.1693,-2.1694,-2.1726,-2.1703,-2.1768,-2.1693,-2.1723,-2.1724,-2.1728,-2.1904,-2.1942,-2.2065,-2.1842,-2.1845,-2.1847,0,-2.1833,-2.1838,-2.1915,-2.1892,-2.1901,-2.1933,-2.1939,-2.1957,-2.1949,-2.1931,-2.1934,-2.189,-2.193,-2.186,-2.1914,-2.1864,-2.1874,-2.1865,-2.1868,-2.187,-2.1793,-2.1911,-2.2103,-2.2122,-2.1872,-2.187,-2.1868,0,-2.1971,-2.1997,-2.2046,-2.2046,-2.202,-2.2045,-2.2036,-2.2024,-2.2033,-2.2038,-2.2044,-2.2054,-2.206,-2.207,-2.203,-2.1983,-2.209,-2.2017,-2.2078,-2.2079,-2.2103,-2.2102,-2.23,-2.2109,-2.2109,-2.2109,-2.2108,0,-2.2117,-2.2166,-2.2108,-2.2138,-2.2192,-2.2141,-2.2197,-2.218,-2.217,-2.2197,-2.2139,-2.2166,-2.2112,-2.2134,-2.2103,-2.2154,-2.2157,-2.2144,-2.2136,-2.215,-2.2152,-2.2155,-2.2146,-2.2113,-2.2112,-2.2111,-2.2111,0,-2.2279,-2.2242,-2.2291,-2.2264,-2.2258,-2.23,-2.2276,-2.2304,-2.2279,-2.2315,-2.232,-2.2282,-2.2304,-2.2266,-2.2284,-2.2264,-2.2334,-2.2312,-2.2337,-2.2331,-2.2394,-2.2389,-2.2602,-2.2628,-2.242,-2.2422,-2.2424,0,-2.2375,-2.2411,-2.2388,-2.2402,-2.2396,-2.2418,-2.2427,-2.2379,-2.2391,-2.2386,-2.2415,-2.2432,-2.2444,-2.2484,-2.2459,-2.2473,-2.2451,-2.2525,-2.2453,-2.2466,-2.2453,-2.2452,-2.2456,-2.254,-2.2542,-2.2544,-2.2546,0,-2.2548,-2.2528,-2.2543,-2.2552,-2.2565,-2.257,-2.257,-2.2585,-2.2535,-2.2552,-2.2574,-2.2583,-2.2602,-2.2621,-2.263,-2.2621,-2.2576,-2.2569,-2.2584,-2.2599,-2.2612,-2.2607,-2.2378,-2.2564,-2.2562,-2.2561,-2.256,-2.2559,-2.268,-2.271,-2.2699,-2.2718,-2.2713,-2.2716,-2.2741,-2.272,-2.2738,-2.2749,-2.272,-2.275,-2.2742,-2.2749,-2.2746,-2.2769,-2.2737,-2.2758,-2.2764,-2.277,-2.278,-2.2608,-2.277,-2.277,-2.2769,-2.2769,-2.2768,0,-2.2851,-2.2841,-2.2859,-2.2862,-2.2878,-2.2833,-2.2833,-2.2849,-2.2876,-2.2872,-2.2885,-2.2912,-2.2931,-2.2908,-2.2923,-2.2946,-2.2926,-2.2952,-2.295,-2.2949,-2.2808,-2.2794,-2.2968,-2.2968,-2.2968,-2.2968,-2.2968,-2.2968,-2.2942,-2.299,-2.297,-2.3017,-2.3006,-2.3034,-2.3038,-2.3041,-2.3038,-2.307,-2.3086,-2.307,-2.3059,-2.3073,-2.3089,-2.3082,-2.309,-2.3124,-2.311,-2.2978,-2.2959,-2.294,-2.2927,-2.3126,-2.3126,-2.3249,-2.325,-2.3251]},{"header":{"parameterUnit":"m.s-1","parameterCategory":1,"la1":30.2991,"la2":30.254,"lo1":-89.0895,"lo2":-89.0444,"dy":0.0017,"dx":0.0017,"nx":28,"ny":28,"refTime":"2025-08-04T03:00:00:Z","depth":0,"parameterNumber":3,"parameterNumberName":"V-component_of_WINDS"},"data":[0,0,0,0,0,0,0,0,0,0,0,0,0,0,0,0,0,0,0,0,0,0,0,0,0,0,0,0,0,0,0,0,0,0,0,0,0,0,0,0,0,0,0,0,0,0,0,0,0,0,0,0,0,0,0,0,0,0,1.7464,1.7464,0,1.7451,1.7451,1.745,1.7459,1.7459,1.746,1.746,1.7445,1.7445,1.7444,0,0,0,0,0,0,0,0,0,0,0,0,0,1.7496,1.7495,1.7464,1.7464,1.7464,1.7451,1.7451,1.745,1.7459,1.7459,1.746,1.746,1.7446,1.7445,1.7444,0,0,0,0,0,0,0,0,0,0,0,0,0,1.7482,1.7495,1.7464,1.7467,1.7467,1.7451,1.7451,1.745,1.7459,1.7459,1.746,1.746,1.7446,1.7445,1.7444,1.7424,0,0,1.744,1.744,0,0,0,0,0,0,0,0,1.7483,1.7481,1.7466,1.7466,1.7466,1.7457,1.7456,1.7442,1.7459,1.7462,1.746,1.7461,1.7449,1.7447,1.7443,1.7424,1.7423,1.744,1.7439,1.7439,1.7438,0,0,0,0,0,0,0,1.7484,1.7481,1.7459,1.7466,1.7466,1.7468,1.7466,1.7453,1.7452,1.7461,1.7462,1.746,1.7449,1.7445,1.7443,1.7423,1.744,1.7439,1.7438,1.7438,1.7384,1.7384,0,0,0,0,0,0,1.7485,1.7482,1.7459,1.7459,1.7476,1.7467,1.7465,1.746,1.7452,1.7452,1.746,1.7461,1.7446,1.7444,1.7443,1.7418,1.7439,1.7438,1.7437,1.7385,1.7384,1.7383,0,0,0,0,0,0,1.7485,1.7483,1.746,1.747,1.7468,1.7465,1.7459,1.7459,1.7455,1.7451,1.7451,1.7456,1.7447,1.7444,1.7428,1.7418,1.7437,1.7436,1.7386,1.7385,1.7384,1.7369,0,0,0,0,0,0,1.7486,1.7483,1.7476,1.747,1.7467,1.7446,1.7458,1.7458,1.7453,1.7454,1.7447,1.7447,1.7447,1.743,1.7427,1.7416,1.7435,1.7387,1.7385,1.7384,1.7371,1.7368,1.7366,0,0,0,0,0,1.7487,1.7473,1.7476,1.7473,1.7459,1.7446,1.7444,1.7445,1.7452,1.7445,1.7442,1.7447,1.7419,1.7428,1.7425,1.7414,1.7387,1.7386,1.7384,1.7372,1.7369,1.7366,0,0,0,0,0,0,1.7477,1.7472,1.7475,1.7459,1.7453,1.7447,1.7438,1.7442,1.7433,1.7435,1.7436,1.7434,1.7417,1.7414,1.7424,1.7394,1.7404,1.7402,1.7396,1.7393,1.739,1.7391,1.7434,0,0,0,0,0,1.7473,1.7464,1.746,1.7445,1.7442,1.7441,1.7435,1.7436,1.743,1.7427,1.7424,1.7417,1.7407,1.74,1.739,1.7371,1.7368,1.7361,1.7359,1.7356,1.7354,1.7341,1.7337,1.7378,1.7378,1.7378,0,0,1.7465,1.7461,1.7455,1.7443,1.7439,1.7428,1.7438,1.7427,1.7419,1.7426,1.741,1.7407,1.7399,1.7381,1.7373,1.7378,1.7342,1.7354,1.7353,1.7351,1.7339,1.7335,1.7332,1.7377,1.7377,1.7377,0,0,1.7443,1.744,1.7427,1.7422,1.7415,1.7413,1.741,1.7404,1.7402,1.7387,1.7391,1.7381,1.7364,1.7357,1.7352,1.7326,1.733,1.7323,1.7309,1.7296,1.7293,1.729,1.7279,1.7275,1.7321,1.7321,1.7321,0,1.7433,1.7418,1.742,1.7407,1.7401,1.7407,1.7393,1.7388,1.7378,1.7373,1.7379,1.7356,1.7352,1.7331,1.7324,1.7321,1.7316,1.7324,1.7294,1.7291,1.7288,1.7277,1.7273,1.732,1.732,1.732,1.732,0,1.7405,1.7394,1.7384,1.7374,1.7367,1.7354,1.7352,1.7345,1.7346,1.7344,1.7327,1.7322,1.731,1.7306,1.7307,1.7284,1.7287,1.7294,1.7304,1.7283,1.7273,1.7269,1.7319,1.7319,1.732,1.732,0,0,1.7377,1.7367,1.7363,1.7358,1.735,1.7341,1.7327,1.7316,1.7308,1.7301,1.7289,1.7273,1.7278,1.7272,1.7273,1.7262,1.7239,1.7269,1.7269,1.7262,1.7211,1.7206,1.7201,1.7242,1.7241,1.7241,1.7211,0,1.7354,1.733,1.7331,1.7308,1.7297,1.7302,1.7289,1.7282,1.728,1.7269,1.7266,1.7254,1.7263,1.7259,1.7249,1.7245,1.7229,1.7247,1.7229,1.7228,1.7229,1.7196,1.719,1.7163,1.7208,1.7207,1.7207,0,1.7323,1.7314,1.7291,1.7282,1.7278,1.7267,1.7255,1.7246,1.7237,1.7236,1.7228,1.723,1.7215,1.7227,1.7205,1.7217,1.7209,1.7206,1.7205,1.7202,1.7215,1.7191,1.7154,1.7149,1.7201,1.7201,1.7202,0,1.7303,1.7285,1.7268,1.7264,1.7254,1.7246,1.7241,1.7234,1.7226,1.7216,1.7211,1.72,1.7193,1.7183,1.7181,1.719,1.7158,1.717,1.7155,1.7155,1.7147,1.7148,1.7107,1.7146,1.7146,1.7146,1.7146,0,1.7276,1.7261,1.7258,1.7248,1.723,1.7231,1.7213,1.721,1.7202,1.719,1.7194,1.7182,1.7181,1.7169,1.7168,1.7148,1.7146,1.7143,1.7142,1.7142,1.7142,1.7136,1.7137,1.7145,1.7145,1.7145,1.7145,0,1.725,1.7248,1.7229,1.7222,1.7219,1.7206,1.7199,1.7188,1.7186,1.717,1.7167,1.7162,1.7148,1.7145,1.7128,1.7127,1.7103,1.7106,1.7106,1.7106,1.709,1.7091,1.7043,1.7036,1.708,1.708,1.708,0,1.7232,1.722,1.7211,1.7203,1.7198,1.7186,1.7178,1.7177,1.7169,1.7157,1.7147,1.7133,1.7121,1.7098,1.7092,1.7079,1.7079,1.7064,1.7077,1.7076,1.7077,1.7077,1.7074,1.7061,1.706,1.706,1.706,0,1.72,1.7199,1.7188,1.7175,1.7166,1.7156,1.7147,1.714,1.7138,1.7128,1.7113,1.7104,1.7086,1.7071,1.7057,1.7052,1.7054,1.7055,1.7051,1.7049,1.7049,1.7047,1.7097,1.7056,1.7057,1.7057,1.7057,1.7057,1.7176,1.7165,1.7156,1.7143,1.7136,1.7127,1.7116,1.7111,1.7099,1.7084,1.7085,1.7067,1.7057,1.7039,1.7032,1.7018,1.7023,1.7017,1.7015,1.7013,1.701,1.7052,1.7016,1.7016,1.7016,1.7016,1.7016,0,1.7142,1.7137,1.7125,1.7111,1.71,1.7104,1.7094,1.7084,1.7069,1.706,1.7048,1.7029,1.7015,1.7008,1.6993,1.6982,1.6983,1.6978,1.6978,1.6976,1.7008,1.7013,1.6978,1.6978,1.6978,1.6978,1.6978,1.6978,1.7124,1.7104,1.7102,1.7079,1.7073,1.7057,1.705,1.7041,1.7033,1.7013,1.7,1.6996,1.6987,1.6971,1.6957,1.6955,1.6948,1.6942,1.6941,1.697,1.6974,1.6978,1.6982,1.6941,1.6941,1.691,1.691,1.6909]}]]